Location: Darlington Observatory
(36.4817°N, 105.8156°W)
Time: 17:27:20
(UTC-06:00)

NOSS 3-3 (A) - Visible Passes

Search period start: 19 April 2018 00:00
Search period end: 29 April 2018 00:00
Orbit: 883 x 1329 km, 63.4° (Epoch: 19 April)

Date Brightness Start Highest point End Pass type
(mag) Time Alt. Az. Time Alt. Az. Time Alt. Az.
19 Apr 7.3 03:12:40 10° NNE 03:13:52 10° NNE 03:15:04 10° NE visible
19 Apr 6.1 05:00:12 10° NNW 05:07:08 38° NE 05:14:32 10° ESE visible
19 Apr 3.8 20:41:06 10° SSW 20:47:00 72° ESE 20:53:26 10° NE visible
19 Apr 6.3 22:33:59 10° W 22:38:36 22° NW 22:43:34 10° N visible
20 Apr 6.6 04:15:52 10° NNW 04:21:59 26° NE 04:28:27 10° E visible
20 Apr 4.3 19:56:58 10° S 20:02:28 41° ESE 20:08:23 10° NE visible
20 Apr 5.7 21:48:03 10° WSW 21:53:25 32° NW 21:59:16 10° NNE visible
21 Apr 7.0 03:31:44 10° N 03:36:39 18° NE 03:41:48 10° ENE visible
21 Apr 4.9 05:21:17 10° NNW 05:28:54 71° ENE 05:37:05 10° SE visible
21 Apr 4.9 21:02:37 10° SW 21:08:26 51° NW 21:14:48 10° NNE visible
21 Apr 7.1 22:58:54 10° NW 23:01:09 12° NNW 23:03:28 10° N visible
22 Apr 7.2 02:47:58 10° N 02:51:07 13° NNE 02:54:22 10° NE visible
22 Apr 5.6 04:36:43 10° NNW 04:43:59 48° NE 04:51:47 10° SE visible
22 Apr 4.1 20:17:40 10° SSW 20:23:38 84° WNW 20:30:08 10° NNE visible
22 Apr 6.7 22:11:41 10° WNW 22:15:39 17° NW 22:19:51 10° N visible
23 Apr 6.2 03:52:18 10° NNW 03:58:56 33° NE 04:06:01 10° ESE visible
23 Apr 4.6 05:42:46 10° NW 05:50:21 61° WSW 05:58:23 10° SSE visible
23 Apr 6.2 21:25:23 10° W 21:30:22 25° NW 21:35:43 10° NNE visible
24 Apr 6.6 03:08:01 10° N 03:13:43 23° NE 03:19:43 10° E visible
24 Apr 4.6 04:57:56 10° NNW 05:05:38 89° ENE 05:13:52 10° SSE visible
24 Apr 5.6 20:39:40 10° WSW 20:45:14 38° NW 20:51:21 10° NNE visible
25 Apr 7.0 02:23:59 10° N 02:28:19 16° NE 02:32:48 10° ENE visible
25 Apr 5.1 04:13:16 10° NNW 04:20:48 61° NE 04:28:52 10° SE visible
25 Apr 7.0 21:49:42 10° WNW 21:52:46 14° NNW 21:55:58 10° N visible
26 Apr 7.2 01:40:36 10° N 01:42:42 11° NNE 01:44:50 10° NE visible
26 Apr 5.7 03:28:45 10° NNW 03:35:50 41° NE 03:43:23 10° ESE visible
26 Apr 4.8 05:19:38 10° NW 05:26:57 47° WSW 05:34:41 10° S visible
26 Apr 6.7 21:02:57 10° W 21:07:22 20° NW 21:12:04 10° N visible
27 Apr 6.2 02:44:24 10° NNW 02:50:43 28° NE 02:57:25 10° E visible
27 Apr 4.5 04:34:39 10° NW 04:42:19 72° WSW 04:50:28 10° SSE visible
27 Apr 6.2 20:16:53 10° WSW 20:22:08 29° NW 20:27:50 10° NNE visible
28 Apr 6.7 02:00:12 10° N 02:05:25 20° NE 02:10:54 10° E visible
28 Apr 4.6 03:49:53 10° NNW 03:57:33 77° ENE 04:05:46 10° SE visible
28 Apr 5.5 05:42:19 10° WNW 05:47:58 22° WSW 05:53:51 10° SSW visible
28 Apr 7.1 21:28:19 10° NW 21:29:58 11° NNW 21:31:39 10° NNW visible
